Regional Weather Roundup
Issued by NWS

Home | Current Version | Previous Version | Graphics & Text | Print | Product List | Glossary On
Versions: 1 2 3 4 5 6 7 8 9 10 11 12 13 14 15 16 17 18 19 20 21 22 23 24 25 26 27 28 29 30 31 32 33 34 35 36 37 38 39 40 41 42 43 44 45 46 47 48 49 50
000
ASUS43 KDMX 252303
RWRIA

WEATHER ROUNDUP FOR IOWA
NATIONAL WEATHER SERVICE DES MOINES IA
600 PM CDT SUN SEP 25 2016

NOTE: "FAIR" INDICATES FEW OR NO CLOUDS BELOW 12,000 FEET WITH NO
SIGNIFICANT WEATHER AND/OR OBSTRUCTIONS TO VISIBILITY.

* - THESE STATIONS ARE NOT NWS STATIONS...THUS NOT UNDER NWS
QUALITY CONTROL.  THEY ALSO DO NOT REPORT WEATHER SUCH
AS PRECIPITATION OR FOG.

IAZ001>003-012>014-020>022-031>034-043>046-260000-
   NORTHWEST IOWA

CITY           SKY/WX    TMP DP  RH WIND       PRES   REMARKS
CARROLL *      MOSUNNY   64  46  52 NW15G29   30.09S
CHEROKEE *     MOSUNNY   65  45  47 NW10G23   30.08S
DENISON *      MOSUNNY   66  46  48 NW14G21   30.08S
LE MARS *      MOSUNNY   68  41  37 NW14G21   30.10R
ORANGE CITY *  MOSUNNY   66  43  42 NW16G24   30.08R
SHELDON *      PTSUNNY   66  43  42 NW17G30   30.06R
SIOUX CITY     SUNNY     69  43  38 NW17      30.10R
SPENCER        SUNNY     63  48  58 NW18      30.06S
STORM LAKE *   SUNNY     64  46  52 NW15G24   30.08S
$$

IAZ055>058-069>071-079>083-090>094-260000-
   SOUTHWEST IOWA

CITY           SKY/WX    TMP DP  RH WIND       PRES   REMARKS
ATLANTIC *     CLOUDY    66  50  55 NW8G15    30.12R
AUDUBON *      MOSUNNY   64  48  55 NW7G17    30.11F
CLARINDA *       N/A     70  48  46 MISG      30.14R
COUNCIL BLFS * SUNNY     68  48  49 NW8G16    30.12S
CRESTON *      CLOUDY    64  48  55 NW21G29   30.13R
HARLAN  *      SUNNY     66  48  52 NW12      30.15R
LAMONI         CLOUDY    66  54  65 W8        30.10R
RED OAK *      PTSUNNY   70  48  46 N10       30.13R
SHENANDOAH *   PTSUNNY   70  48  46 NW14      30.13R
$$

IAZ047>049-059>061-072>074-084-260000-
   CENTRAL IOWA

CITY           SKY/WX    TMP DP  RH WIND       PRES   REMARKS
AMES           CLOUDY    63  51  65 NW16G25   30.07R
ANKENY *         N/A    N/A N/A N/A MISG        N/A
BOONE *        CLOUDY    63  50  63 NW18G28   30.07R
CHARITON *       N/A     64  54  68 NW14      30.08R
DES MOINES     CLOUDY    67  48  50 NW17G28   30.07R
GRINNELL*      CLOUDY    65  49  56 W15G24    30.06R
KNOXVILLE *    CLOUDY    66  50  55 NW14      30.06R
MARSHALLTOWN   CLOUDY    63  51  65 W17G29    30.04R
NEWTON *       CLOUDY    64  48  55 W9G22     30.06R
PELLA *        PTSUNNY   66  50  56 NW9       30.07R
PERRY *        CLOUDY    64  50  58 NW8G16    30.09S
$$

IAZ004>006-015-016-023>025-035-036-260000-
   NORTH CENTRAL IOWA

CITY           SKY/WX    TMP DP  RH WIND       PRES   REMARKS
ALGONA *       CLOUDY    61  50  67 W14G23    30.05S
CLARION *      CLOUDY    61  52  72 NW16G24   30.05R
ESTHERVILLE    CLOUDY    61  49  64 NW12      30.04R
FORT DODGE *   CLOUDY    61  48  63 W12G17    30.07S
MASON CITY     CLOUDY    60  51  72 W13       30.03R
FOREST CITY *  CLOUDY    59  50  72 NW17G24   30.02R
WEBSTER CITY * CLOUDY    61  52  72 W13G32    30.05R
IOWA FALLS *   CLOUDY    63  50  64 W23G31    30.06R
$$

IAZ007>011-017>019-026>030-037>042-050>054-066-260000-
   NORTHEAST IOWA

CITY           SKY/WX    TMP DP  RH WIND       PRES   REMARKS
CEDAR RAPIDS   CLOUDY    65  55  70 W14       30.01R
CHARLES CITY * CLOUDY    63  52  67 W16G26    30.00R
CLINTON *      CLOUDY    73  62  68 W21G29    29.95R
DECORAH *      CLOUDY    64  50  59 W13G22    29.95R
DUBUQUE        PTCLDY    67  55  65 W13G23    29.97R
MONTICELLO *   CLOUDY    68  54  60 W12G23    29.99R
OELWEIN *      CLOUDY    66  50  55 W17G25    29.99S
WATERLOO       CLOUDY    65  49  56 W17G29    30.00R
$$

IAZ064-065-067-068-078-260000-
   EAST CENTRAL IOWA

CITY           SKY/WX    TMP DP  RH WIND       PRES   REMARKS
DAVENPORT      CLOUDY    71  56  58 W15G25    29.97R
IOWA CITY      CLOUDY    68  53  58 W17G24    30.03R
MUSCATINE *    CLOUDY    70  55  60 W18G24    30.01R
QUAD CITIES    CLOUDY    72  58  61 W18G26    29.97R
$$

IAZ062-063-075>077-085>089-095>099-260000-
   SOUTHEAST IOWA

CITY           SKY/WX    TMP DP  RH WIND       PRES   REMARKS
BURLINGTON     CLOUDY    71  62  73 W10G21    30.01R
FAIRFIELD *    CLOUDY    66  52  59 W15G25    30.04R
FORT MADISON *   N/A     70  57  64 W14       30.04R
KEOKUK *       CLOUDY    73  64  73 NW14G24   30.01R
OSKALOOSA *      N/A     66  52  60 W10       30.05S
OTTUMWA        CLOUDY    65  51  60 W13       30.05R
WASHINGTON *     N/A    N/A N/A N/A MISG        N/A
$$

ABBREVIATIONS USED IN REMARKS
   TC - TEMPERATURES IN CELSIUS
  WCI - WIND CHILL INDEX
   HX - HEAT INDEX
  VSB - VISIBILITY
$$





USA.gov is the U.S. government's official web portal to all federal, state and local government web resources and services.